Regional Weather Roundup
Issued by NWS

Home | Current Version | Previous Version | Text Only | Print | Product List | Glossary Off
Versions: 1 2 3 4 5 6 7 8 9 10 11 12 13 14 15 16 17 18 19 20 21 22 23 24 25 26 27 28 29 30 31 32 33 34 35 36 37 38 39 40 41 42 43 44 45 46 47 48 49 50

000
ASUS43 KOAX 271202
RWRNE

WEATHER ROUNDUP FOR NEBRASKA
NATIONAL WEATHER SERVICE OMAHA NE
700 AM CDT WED AUG 27 2014

NOTES: SATELLITE DATA IS BEING USED TO AUGMENT CLOUD COVER ABOVE
       12000 FEET.
       "FAIR" INDICATES FEW OR NO CLOUDS BELOW 12,000 FEET WITH NO
       SIGNIFICANT WEATHER AND/OR OBSTRUCTIONS TO VISIBILITY.

  * THESE STATIONS DO NOT REPORT WEATHER SUCH AS RAIN...SNOW OR FOG.

NEZ001>004-019>022-054>056-271300-
NEBRASKA PANHANDLE

CITY           SKY/WX    TMP DP  RH WIND       PRES   REMARKS
SCOTTSBLUFF    MOCLDY    61  60  97 N3        30.11F
6HR MIN TEMP:  61; 6HR MAX TEMP:  64;

ALLIANCE       MOCLDY    60  59  96 NE8       30.13R FOG
6HR MIN TEMP:  60; 6HR MAX TEMP:  65;

CHADRON        CLOUDY    62  59  90 NE5       30.12S
6HR MIN TEMP:  60; 6HR MAX TEMP:  64;

KIMBALL        FOG       61  61  99 W3        30.12F VSB 1/4
SIDNEY         PTCLDY    60  57  89 SE7       30.14R
6HR MIN TEMP:  60; 6HR MAX TEMP:  66;

$$

NEZ057>060-069>072-079>082-271300-
SOUTHWEST NEBRASKA

CITY           SKY/WX    TMP DP  RH WIND       PRES   REMARKS
NORTH PLATTE   MOCLDY    67  63  87 E9        30.09R
6HR MIN TEMP:  65; 6HR MAX TEMP:  69; 6HR PCP:  1.17;

IMPERIAL       PTCLDY    62  61  96 SE9       30.11S
6HR MIN TEMP:  62; 6HR MAX TEMP:  70; 6HR PCP: TRACE;

LEXINGTON      CLOUDY    68  67  96 S6        30.08R
MCCOOK         CLOUDY    67  65  93 SE7       30.12R
6HR MIN TEMP:  66; 6HR MAX TEMP:  69; 6HR PCP:  1.30;

OGALLALA       PTCLDY    59  58  97 CALM      30.10R
$$

NEZ005>010-023>029-035>040-094-271300-
NORTH CENTRAL NEBRASKA

CITY           SKY/WX    TMP DP  RH WIND       PRES   REMARKS
VALENTINE      CLOUDY    68  67  96 E5        30.11F
6HR MIN TEMP:  66; 6HR MAX TEMP:  68;

AINSWORTH      DRIZZLE   66  65  96 CALM      30.12R
BROKEN BOW     CLOUDY    69  67  93 E8        30.08F FOG
6HR MIN TEMP:  69; 6HR MAX TEMP:  70; 6HR PCP: TRACE;

O`NEILL        TSTM      69  67  94 S3        30.13R
ORD            CLOUDY    67  66  97 SE5       30.11R
6HR MIN TEMP:  66; 6HR MAX TEMP:  67;

THEDFORD       MOCLDY    67  67  99 NE7       30.10F
$$

NEZ041-046>049-061>064-073>077-083>087-271300-
SOUTH CENTRAL NEBRASKA

CITY           SKY/WX    TMP DP  RH WIND       PRES   REMARKS
GRAND ISLAND   LGT RAIN  69  66  90 E5        30.10F FOG
6HR MIN TEMP:  68; 6HR MAX TEMP:  70; 6HR PCP:  0.20;

AURORA         RAIN      68  68 100 CALM      30.11F
HASTINGS       LGT RAIN  68  64  87 N6        30.07F
6HR MIN TEMP:  68; 6HR MAX TEMP:  70; 6HR PCP:  0.11;

HEBRON         CLOUDY    69  66  90 NW5       30.09R
HOLDREGE       CLOUDY    67  65  94 CALM      30.09F
KEARNEY *      CLOUDY    66  64  94 E6        30.09F
YORK           LGT RAIN  68 N/A N/A CALM      30.12S
$$

NEZ011>018-030>034-042>045-271300-
NORTHEAST NEBRASKA

CITY           SKY/WX    TMP DP  RH WIND       PRES   REMARKS
NORFOLK        CLOUDY    66  63  90 NE9       30.11S
6HR MIN TEMP:  64; 6HR MAX TEMP:  66; 6HR PCP: TRACE;

ALBION         TSTM      66  64  93 CALM      30.13R
BLAIR          CLOUDY    68  65  90 NE10      30.10S THUNDER
FREMONT        CLOUDY    67  65  91 E6        30.10F
TEKAMAH        CLOUDY    66  64  93 N5        30.11F
6HR MIN TEMP:  65; 6HR MAX TEMP:  67;

WAYNE          TSTM      63  62  96 E7        30.13S
$$

NEZ050>053-065>068-078-088>093-271300-
SOUTHEAST NEBRASKA

CITY           SKY/WX    TMP DP  RH WIND       PRES   REMARKS
LINCOLN        CLOUDY    70  67  90 CALM      30.09S
6HR MIN TEMP:  67; 6HR MAX TEMP:  70;

OMAHA EPPLEY   MOCLDY    69  64  84 SE7       30.10R
6HR MIN TEMP:  67; 6HR MAX TEMP:  71;

BEATRICE       CLOUDY    70  69  97 E9        30.09R
FALLS CITY     CLOUDY    70  66  87 E9        30.07F
6HR MIN TEMP:  70; 6HR MAX TEMP:  73; 6HR PCP:  0.07;

NEBRASKA CITY  CLOUDY    68  68 100 E5        30.10R FOG
PLATTSMOUTH    RAIN      68  66  93 CALM      30.09F
$$

NEZ044-045-051>053-067-271300-
OMAHA AREA

CITY           SKY/WX    TMP DP  RH WIND       PRES   REMARKS
OMAHA EPPLEY   MOCLDY    69  64  84 SE7       30.10R
6HR MIN TEMP:  67; 6HR MAX TEMP:  71;

BLAIR          CLOUDY    68  65  90 NE10      30.10S THUNDER
FREMONT        CLOUDY    67  65  91 E6        30.10F
MILLARD        MOCLDY    69  65  89 CALM      30.09S THUNDER
OFFUTT AFB     MOCLDY    67  67 100 NE6       30.08F
PLATTSMOUTH    RAIN      68  66  93 CALM      30.09F
WAHOO          PTSUNNY   67  64  90 NE3       30.09F
$$



USA.gov is the U.S. government's official web portal to all federal, state and local government web resources and services.